Location: Rounton
(54.4000°N, 1.3500°W)
Time: 21:46:14
(UTC+00:00)

Explorer 7 - Pass Details

Date: 30 November 2021
Orbit: 483 x 674 km, 50.3° (Epoch: 17 January)

Event Time Altitude Azimuth Distance (km) Brightness Sun altitude
Rises 09:55:22 0° 258° (WSW) 2,678 10.2 9.7°
Reaches altitude 10° 09:57:41 10° 253° (WSW) 1,758 9.3 9.9°
Maximum altitude 10:01:29 46° 180° (S) 686 8.2 10.1°
Drops below altitude 10° 10:05:09 10° 106° (ESE) 1,687 10.0 10.4°
Sets 10:07:20 0° 100° (E) 2,556 10.8 10.5°
